Location: Villaseca
(39.9618°N, 3.8829°W)
Time: 07:05:43
(UTC+00:00)

Daily predictions for brighter satellites

Satellite Brightness Start Highest point End
(mag) Time Altitude Azimuth Time Altitude Azimuth Time Altitude Azimuth
Lacrosse 5 rocket 4.5 20:09:27 10° NW 20:10:22 11° NNW 20:11:17 10° N
Cosmos 2242 Rocket 4.1 20:07:58 10° SSE 20:12:01 39° E 20:16:05 10° NNE
Cosmos 1782 Rocket 3.5 20:08:59 10° N 20:13:25 77° E 20:17:46 10° S
Meteor 2-5 Rocket 4.2 20:09:30 10° SSW 20:15:18 70° W 20:21:03 10° N
Helios 1B rocket 3.5 20:12:34 10° SE 20:15:35 24° ENE 20:18:37 10° NNE
Meteor 2-17 Rocket 4.4 20:11:02 10° S 20:17:05 80° E 20:23:13 10° N
Cosmos 158 Rocket 4.3 20:15:38 10° NNW 20:20:25 61° WSW 20:25:11 10° S
Helios 1A 4.2 20:17:30 10° NE 20:20:32 21° E 20:23:33 10° SE
Cosmos 220 Rocket 3.9 20:16:41 10° NNW 20:20:57 76° ENE 20:25:09 10° SSE
Terra 2.8 20:19:19 10° SE 20:23:26 31° ENE 20:27:36 10° N
Cosmos 1570 Rocket 4.1 20:18:45 10° NNW 20:24:00 65° ENE 20:29:11 10° SSE
Cosmos 2034 Rocket 4.2 20:23:40 10° N 20:30:03 79° W 20:36:24 10° S
Cosmos 1634 Rocket 4.2 20:24:19 10° N 20:30:22 56° E 20:36:24 10° SSE
Cosmos 1606 2.1 20:27:51 10° N 20:30:55 85° W 20:33:58 10° S
Cosmos 1486 Rocket 4.0 20:28:18 10° S 20:33:32 75° ESE 20:38:49 10° NNE
Cosmos 1300 Rocket 4.2 20:29:41 10° NNW 20:33:58 58° W 20:38:12 10° S
USA 186 2.2 20:32:04 10° S 20:34:42 48° W 20:37:22 10° NNW
SPOT 5 3.2 20:30:38 10° SSE 20:35:51 83° WSW 20:41:12 10° NNW
Resurs 01 Rocket 4.2 20:38:13 10° SW 20:41:26 20° W 20:44:40 10° NW
TRACE 4.5 20:40:51 10° N 20:42:26 33° WNW 20:43:59 10° SW
ERS-1 Rocket 3.1 20:37:41 10° SSE 20:42:34 59° ENE 20:47:28 10° N
ADEOS 4.4 20:38:36 10° S 20:43:37 49° W 20:48:41 10° NNW
Cosmos 2297 3.7 20:40:13 10° S 20:45:46 66° ESE 20:51:24 10° NNE
Meteor 1-21 Rocket 4.5 20:40:39 10° SSE 20:46:04 48° E 20:51:25 10° NNE
MOS 1-B 4.3 20:40:57 10° SSE 20:46:42 77° ENE 20:52:28 10° N
Cosmos 2279 Rocket 4.3 20:41:07 10° N 20:47:11 51° E 20:52:36 13° SSE
Tsikada Rocket 4.3 20:41:25 10° SSW 20:47:45 73° W 20:54:12 10° N
Okean-O 2.8 20:46:07 14° SSE 20:49:50 57° ENE 20:54:08 10° N
Cosmos 1656 Rocket 4.2 20:46:26 10° SSW 20:51:56 64° WNW 20:57:24 10° NNE
Cosmos 1378 Rocket 3.5 20:48:02 10° S 20:52:15 60° E 20:56:28 10° NNE
COSMOS 2406 3.6 20:50:20 10° NNW 20:56:02 64° WSW 21:01:33 10° S
Okean O Rocket 1.6 20:52:23 11° SSE 20:56:30 89° WSW 21:00:55 10° NNW
Cosmos 1025 Rocket 4.0 20:54:33 18° SE 20:56:52 29° E 21:00:39 10° NNE
CZ-4B R/B 3.9 20:54:40 10° S 20:59:52 52° W 21:05:13 10° NNW
CZ-4 R/B 4.0 21:03:45 10° SW 21:05:50 14° W 21:07:55 10° WNW
In-Cosmos 22 Rocket 4.2 21:03:13 10° S 21:09:01 81° E 21:14:48 10° NNE
Cosmos 2082 Rocket 4.0 21:06:53 10° NW 21:11:36 27° WSW 21:16:17 10° SSW
Cosmos 2208 Rocket 4.4 21:09:41 10° NNW 21:14:52 61° WSW 21:19:13 15° S
Cosmos 1503 Rocket 4.2 21:10:37 10° SSW 21:15:46 71° WNW 21:20:56 10° NNE
Cosmos 2369 Rocket 2.6 21:15:21 10° SSW 21:21:01 67° WNW 21:26:41 10° NNE
Cosmos 1354 Rocket 4.0 21:20:03 10° SSW 21:25:16 83° WNW 21:30:30 10° NNE
ASTEX 1 3.3 21:24:46 10° NNE 21:29:36 64° E 21:32:10 27° SSE
SAR-Lupe-2 3.9 21:29:36 39° ESE 21:30:28 49° ENE 21:33:57 10° N
DELTA 2 R/B (1) 3.5 21:28:12 10° WSW 21:33:41 66° SSE 21:38:43 12° E
ISS -0.8 21:32:45 10° NNW 21:34:16 12° N 21:35:47 10° NE
Cosmos 1340 Rocket 4.1 21:31:21 10° NNW 21:34:52 34° W 21:37:29 15° SSW
Ariane Rocket 3.2 21:32:58 31° SE 21:35:14 57° ENE 21:40:11 10° N
Tiangong -2.1 21:35:05 10° WSW 21:38:13 63° S 21:38:13 63° S
COBE Rocket 4.1 21:35:09 10° NNE 21:39:34 43° E 21:40:35 37° SE
Cosmos 1869 3.7 21:36:57 10° NNW 21:40:25 50° W 21:41:51 29° SSW
Okean 2 Rocket 3.0 21:36:43 10° N 21:41:06 80° W 21:42:59 33° S
CZ-4C R/B 1.6 21:38:57 10° SW 21:43:00 84° NW 21:48:04 10° NNE
Cosmos 2151 Rocket 4.2 21:43:29 10° NNW 21:47:53 53° W 21:50:15 25° SSW
Cosmos 44 3.2 21:43:48 10° SW 21:48:03 69° WNW 21:52:25 10° NNE
Helios 1B rocket 4.4 21:46:34 11° SW 21:49:10 20° W 21:51:55 10° NW
Cosmos 1975 Rocket 3.7 21:53:28 37° E 21:53:30 37° E 21:57:28 10° NNE
Okean 1 Rocket 3.1 21:50:43 10° NNW 21:55:03 73° W 21:56:27 42° S
Nadezhda 4 Rocket 4.1 21:51:05 19° S 21:55:49 81° W 22:02:11 10° N
Cosmos 2221 Rocket 4.3 21:52:40 17° SSW 21:55:53 51° W 22:00:19 10° N
Terra 3.6 21:57:31 12° SSW 22:00:57 25° W 22:04:51 10° NW
Cosmos 2228 4.4 21:59:50 10° NNE 22:03:10 24° ENE 22:03:10 24° ENE
Cosmos 2285 Rocket 4.0 21:59:35 17° SSW 22:04:40 87° WNW 22:11:08 10° NNE
Cosmos 1867 3.4 22:02:46 30° SSW 22:05:27 70° ESE 22:10:54 10° NE
SPOT 3 Rocket 3.8 22:04:07 35° S 22:06:15 65° WSW 22:11:26 10° NNW
Cosmos 2195 Rocket 4.4 22:03:24 33° S 22:06:20 80° E 22:12:34 10° N
Cosmos 1455 Rocket 2.9 22:02:20 10° N 22:06:38 66° E 22:07:03 61° ESE
BREEZE M DEB (TANK) 3.2 22:02:47 10° WSW 22:08:28 60° NNW 22:10:09 21° NE
Cosmos 2026 Rocket 3.8 22:12:16 40° S 22:14:35 77° E 22:20:38 10° N
NOSS 3-4 (A) 4.3 22:09:52 10° NW 22:16:51 57° WSW 22:20:32 33° S
NOSS 3-4 (C) 4.3 22:09:55 10° NW 22:16:55 58° WSW 22:20:31 33° S
Cosmos 1898 Rocket 3.3 22:16:18 52° S 22:17:31 75° ESE 22:22:44 10° NNE
PSLV R/B 4.3 22:22:10 42° WNW 22:22:10 42° WNW 22:24:38 10° NNW
Cosmos 1818 3.9 22:16:57 10° NW 22:22:16 55° WSW 22:23:29 45° SSW
Cosmos 1833 4.5 22:19:35 10° NNW 22:25:09 58° WSW 22:26:40 44° SSW
USA 81 3.9 22:25:23 60° SSE 22:26:16 74° E 22:31:32 10° N
Cosmos 1812 3.7 22:23:54 10° NNW 22:26:19 33° WNW 22:26:19 33° WNW
Cosmos 1538 Rocket 3.9 22:21:38 10° NNW 22:27:02 89° ENE 22:28:01 61° SSE
ARIANE 5 R/B 4.1 22:30:39 24° ENE 22:30:40 24° ENE 22:34:14 10° NNE
Cosmos 1553 Rocket 4.4 22:28:37 10° N 22:34:41 48° ENE 22:35:55 43° ESE
BlueWalker 3 4.4 22:32:58 10° NNW 22:35:19 16° NNE 22:36:56 13° NE
Cosmos 1092 Rocket 4.0 22:35:05 40° SSW 22:37:33 78° W 22:43:54 10° N
Cosmos 1656 3.5 22:47:10 68° SE 22:47:26 69° ESE 22:52:57 10° NNE
DELTA 2 DEB (DPAF) 4.3 22:44:20 10° NNE 22:47:30 57° N 22:47:30 57° N
RESURS DK-1 3.8 22:49:29 10° N 22:52:29 29° NE 22:52:29 29° NE
Cosmos 1544 Rocket 3.9 22:52:47 10° N 22:56:31 59° NNE 22:56:31 59° NNE
Cosmos 1400 Rocket 4.1 23:00:36 10° N 23:03:02 35° NNE 23:03:02 35° NNE
Meteor 2-20 Rocket 4.3 22:58:40 10° N 23:04:37 66° E 23:05:05 63° ESE
DNEPR-1 R/B 4.1 23:05:25 10° NW 23:08:46 54° NW 23:08:46 54° NW
ISS -1.4 23:08:43 10° NW 23:10:32 24° NNW 23:10:32 24° NNW
Cosmos 2112 Rocket 4.2 23:07:06 10° N 23:12:19 58° ENE 23:12:22 58° ENE
Cosmos 1937 Rocket 4.3 23:14:20 37° WSW 23:15:34 44° WNW 23:20:29 10° N
DELTA 2 R/B (1) 3.6 23:14:27 10° W 23:19:25 72° W 23:19:25 72° W
Cosmos 2297 Rocket 2.5 23:15:16 10° NNW 23:20:49 53° ENE 23:21:13 52° ENE
ALOS 2 3.6 23:22:00 40° NE 23:22:00 40° NE 23:25:24 10° N
Cosmos 1680 Rocket 3.5 23:17:39 10° NNW 23:22:44 82° N 23:22:44 82° N
Cosmos 1980 Rocket 3.9 23:28:23 19° E 23:28:23 19° E 23:31:02 10° NE
Lacrosse 5 rocket 4.2 23:27:01 10° N 23:28:34 12° NNE 23:30:07 10° NE
Cosmos 1697 Rocket 3.1 23:32:03 51° ENE 23:32:03 51° ENE 23:36:46 10° NNE
Cosmos 2360 4.2 23:33:06 70° W 23:33:31 74° WNW 23:39:13 10° NNE
Cosmos 923 Rocket 4.5 23:29:12 10° NNW 23:33:47 51° W 23:33:47 51° W
Meteor 2-3 Rocket 4.4 23:46:45 44° E 23:46:45 44° E 23:51:49 10° NNE
Cosmos 1125 Rocket 4.5 23:52:54 37° ENE 23:52:54 37° ENE 23:56:40 10° NNE
GEOS 3 Rocket 3.6 23:46:47 10° NE 23:51:46 79° NNE 23:51:46 79° NNE
Cosmos 2227 Rocket 2.9 23:48:09 10° N 23:53:35 44° ENE 23:54:06 43° ENE
